Sydney, Australia

4:02 PM AEST on June 22, 2018 (GMT +1000)
Kingsford Smith International

Weather History for YSSY - June, 2018

Change the Weather History Date:

Wednesday, June 13, 2018

  Actual Average Record
Temperature  
Mean Temperature 59 °F -  
Max Temperature 68 °F 63 °F 73 °F (2001)
Min Temperature 50 °F 46 °F 42 °F (1999)
Degree Days  
Heating Degree Days 6    
Growing Degree Days 9 (Base 50)    
Moisture  
Dew Point 44 °F    
Average Humidity 59    
Maximum Humidity 94    
Minimum Humidity 27    
Precipitation  
Precipitation 0.00 in 0.13 in - ()
Sea Level Pressure  
Sea Level Pressure 29.83 in    
Wind  
Wind Speed 9 mph ()    
Max Wind Speed 13 mph    
Max Gust Speed -    
Visibility 15.5 miles    
Events      
Averages and records for this station are not official NWS values.
T = Trace of Precipitation, MM = Missing Value Source: Averaged Metar Reports

Daily Weather History Graph

Daily Weather History Graph

Search for Another Location

Airport or City:

Astronomy

Jun. 13, 2018 Rise Set
Actual Time 6:57 AM AEST 4:52 PM AEST
Civil Twilight 6:30 AM AEST 5:20 PM AEST
Nautical Twilight 5:58 AM AEST 5:51 PM AEST
Astronomical Twilight 5:28 AM AEST 6:22 PM AEST
Moon 5:47 AM AEST (6/13) 4:30 PM AEST (6/13)
Length of Visible Light 10h 50m
Length of Day
9h 55m
Waning Crescent, 1% of the Moon is Illuminated
Jun 13
Waning Crescent
Jun 14
New
Jun 20
First Quarter
Jun 28
Full
Jul 6
Last Quarter

Hourly Weather History & Observations

Time (AEST) Temp. Dew Point Humidity Pressure Visibility Wind Dir Wind Speed Gust Speed Precip Events Conditions
12:00 AM 53 °F 49 °F 84% 29.83 in 12 mi NNW 9.2 mph - -   Haze
12:00 AM 53.6 °F 50.0 °F 88% 29.83 in - NNW 9.2 mph - N/A   Clear
12:30 AM 53.6 °F 48.2 °F 82% 29.83 in - WNW 6.9 mph - N/A   Clear
1:00 AM 51 °F 47 °F 83% 29.83 in - North 8.1 mph - -  
1:00 AM 51.8 °F 48.2 °F 88% 29.83 in - North 8.1 mph - N/A   Clear
1:30 AM 51.8 °F 48.2 °F 88% 29.80 in - North 3.5 mph - N/A   Clear
2:00 AM 51 °F 47 °F 83% 29.82 in - North 9.2 mph - -  
2:00 AM 50.0 °F 48.2 °F 94% 29.80 in - North 9.2 mph - N/A   Clear
3:00 AM 50 °F 46 °F 83% 29.81 in 11 mi NNW 9.2 mph - -   Haze
3:00 AM 50.0 °F 46.4 °F 87% 29.80 in - NNW 9.2 mph - N/A   Clear
3:30 AM 51.8 °F 46.4 °F 82% 29.80 in - NNW 10.4 mph - N/A   Clear
4:00 AM 52 °F 45 °F 71% 29.80 in - NW 10.4 mph - -  
4:00 AM 51.8 °F 44.6 °F 76% 29.80 in - NW 10.4 mph - N/A   Clear
4:30 AM 53.6 °F 44.6 °F 72% 29.80 in - NW 9.2 mph - N/A   Clear
5:00 AM 51.8 °F 44.6 °F 76% 29.80 in - NW 9.2 mph - N/A   Clear
5:30 AM 51.8 °F 44.6 °F 76% 29.80 in - NW 10.4 mph - N/A   Clear
6:00 AM 52 °F 44 °F 66% 29.82 in 16 mi NW 10.4 mph - -   Partly Cloudy
6:00 AM 51.8 °F 44.6 °F 76% 29.80 in - NW 10.4 mph - N/A   Clear
6:30 AM 51.8 °F 44.6 °F 76% 29.83 in - NW 11.5 mph - N/A   Clear
7:00 AM 53 °F 44 °F 62% 29.84 in - NW 10.4 mph - -  
7:00 AM 51.8 °F 44.6 °F 76% 29.83 in - NW 10.4 mph - N/A   Clear
7:30 AM 53.6 °F 42.8 °F 67% 29.83 in - NW 12.7 mph - N/A   Clear
8:00 AM 56 °F 44 °F 54% 29.84 in - NW 10.4 mph - -  
8:00 AM 57.2 °F 44.6 °F 63% 29.83 in - NW 10.4 mph - N/A   Clear
8:30 AM 57.2 °F 42.8 °F 59% 29.83 in - NW 11.5 mph - N/A   Clear
9:00 AM 59 °F 45 °F 50% 29.85 in 16 mi NNW 11.5 mph - -   Partly Cloudy
9:00 AM 59.0 °F 44.6 °F 59% 29.83 in - NNW 11.5 mph - N/A   Clear
9:30 AM 60.8 °F 44.6 °F 55% 29.83 in - NW 11.5 mph - N/A   Clear
10:00 AM 62 °F 44 °F 41% 29.86 in - NW 11.5 mph - -  
10:00 AM 60.8 °F 44.6 °F 55% 29.83 in - NW 11.5 mph - N/A   Clear
10:30 AM 62.6 °F 42.8 °F 48% 29.83 in - NW 10.4 mph - N/A   Clear
11:00 AM 65 °F 45 °F 37% 29.84 in - NW 11.5 mph - -  
11:00 AM 64.4 °F 44.6 °F 49% 29.83 in - NW 11.5 mph - N/A   Clear
11:30 AM 64.4 °F 42.8 °F 45% 29.80 in - WNW 11.5 mph - N/A   Clear
12:00 PM 66.2 °F 42.8 °F 43% 29.80 in - West 10.4 mph - N/A   Clear
12:30 PM 66.2 °F 42.8 °F 43% 29.80 in - WNW 10.4 mph - N/A   Clear
1:00 PM 66 °F 43 °F 32% 29.80 in - NW 12.7 mph - -  
1:00 PM 66.2 °F 42.8 °F 43% 29.80 in - NW 12.7 mph - N/A   Clear
1:30 PM 68.0 °F 42.8 °F 40% 29.77 in - WNW 12.7 mph - N/A   Clear
2:00 PM 68 °F 42 °F 27% 29.80 in - WNW 11.5 mph - -  
2:00 PM 68.0 °F 41.0 °F 37% 29.80 in - WNW 11.5 mph - N/A   Clear
2:30 PM 68.0 °F 42.8 °F 40% 29.80 in - WNW 12.7 mph - N/A   Clear
3:00 PM 68.0 °F 42.8 °F 40% 29.80 in - NW 10.4 mph - N/A   Clear
4:00 PM 66 °F 43 °F 32% 29.81 in - WNW 11.5 mph - -  
4:00 PM 66.2 °F 42.8 °F 43% 29.80 in - WNW 11.5 mph - N/A   Clear
4:30 PM 64.4 °F 42.8 °F 45% 29.80 in - NW 8.1 mph - N/A   Clear
5:00 PM 65 °F 43 °F 34% 29.83 in - NW 6.9 mph - -  
5:00 PM 64.4 °F 42.8 °F 45% 29.80 in - NW 6.9 mph - N/A   Clear
5:30 PM 62.6 °F 42.8 °F 48% 29.83 in - NW 5.8 mph - N/A   Clear
6:00 PM 62 °F 44 °F 39% 29.84 in 19 mi WNW 5.8 mph - -   Partly Cloudy
6:00 PM 62.6 °F 42.8 °F 48% 29.83 in - WNW 5.8 mph - N/A   Clear
6:30 PM 60.8 °F 44.6 °F 55% 29.86 in - NW 6.9 mph - N/A   Clear
7:00 PM 60 °F 44 °F 43% 29.88 in - NNW 6.9 mph - -  
7:00 PM 60.8 °F 42.8 °F 52% 29.86 in - NNW 6.9 mph - N/A   Clear
7:30 PM 60.8 °F 42.8 °F 52% 29.86 in - NW 8.1 mph - N/A   Clear
8:00 PM 60.8 °F 44.6 °F 55% 29.89 in - NW 9.2 mph - N/A   Clear
8:30 PM 59.0 °F 42.8 °F 55% 29.89 in - NW 9.2 mph - N/A   Clear
9:00 PM 58 °F 43 °F 47% 29.90 in 19 mi WNW 9.2 mph - -   Partly Cloudy
9:00 PM 59.0 °F 42.8 °F 55% 29.89 in - WNW 9.2 mph - N/A   Clear
9:30 PM 57.2 °F 44.6 °F 63% 29.89 in - WNW 9.2 mph - N/A   Clear
10:00 PM 56 °F 43 °F 51% 29.92 in - WNW 6.9 mph - -  
10:00 PM 57.2 °F 42.8 °F 59% 29.92 in - WNW 6.9 mph - N/A   Clear
10:30 PM 57.2 °F 42.8 °F 59% 29.92 in - NW 5.8 mph - N/A   Clear
11:00 PM 55 °F 42 °F 52% 29.92 in - NNW 5.8 mph - -  
11:00 PM 55.4 °F 42.8 °F 63% 29.92 in - NNW 5.8 mph - N/A   Clear
11:30 PM 51.8 °F 42.8 °F 71% 29.92 in - ENE 4.6 mph - N/A   Clear